Showing default

HELIOS 2A, 28492

Orbit data source: Space-Track

HELIOS 2A, 28492 is a French payload satellite in SSO that was launched on Sat, 18 Dec 2004 UTC via an ARIANE 5G+ launch vehicle from the French Guiana (FRGUI). Payload-class satellites include a variety of spacecraft equipped with specific instruments for various scientific and technological missions. These include communications satellites like Starlink; space stations such as the ISS; scientific satellites like the Hubble; Earth observation satellites from companies like Planet Labs, Umbra, and HawkEye 360; GPS; miniature CubeSats for education and research; and military/defense satellites.

Loading next visibility...
Identifier
28492, 2004-049A
Orbit
SSO
Country
Flag of FRFR
Related business
Manufacturer
Astrium/Toulouse
Mission
Non-operational Defense Imaging
Bus & Motor
SPOT, Unknown motor
Mass
4,200 kg wet, ~4,000 kg dry
Launch date (UTC)
2004-12-18 (22 years ago)
Launch vehicle
ARIANE 5G+
Launch site
French Guiana (FRGUI)
Object type
Payload
Rocket body
Debris
Shape & HBR
Box + 1 Pan, 8.0 m
Radar Cross Section
33.015 m², Large (>1 m²)

Expand to show TLE details & history
Last TLE update: 2 days ago

TLE from 2 days ago
0 HELIOS 2A
1 28492U 04049A   26171.43231675  .00001870  00000-0  14481-3 0  9997
2 28492  98.2563 225.3325 0002088 322.7873  37.3205 15.02812325154258
Epoch: 2026-06-20T10:22Z
TLE epoch observation values (Epoch: 2026-06-20T10:22:32.167Z)
Latitude
-0.00004°
Longitude
161.05145°
Altitude
560.119 km
Speed
7.582 km/s
True Right ascension
15h 01m 19s
True Declination
0° 00' 00"
Sunlit
Object was in full shadow at epoch
Visualization orbit readout
Latitude
Unknown
Longitude
Unknown
Altitude
Unknown
Speed
Unknown
Apparent Right ascension
Unknown
Apparent Declination
Unknown
Sunlit
N/A
Visualization observer readout
Local Sidereal Time
00:39:34
Azimuth
Unknown
Elevation
Unknown
Doppler factor
Unknown
Orbital elements
Apogee altitude
556.704 km
Perigee altitude
553.808 km
Semi-major axis
6,933.393 km
Eccentricity
0.00021
Inclination
98.2563°
RAAN
225.3325°
Arg. of periapsis
322.7873°
True anomaly
37.33501°
Mean anomaly
37.3205°
Eccentric anomaly
37.32775°
Mean motion
3.75945 °/min
Orbital period
95.76 mins
BSTAR
0.00014481
Loading maneuver chart data...
Computing Atmospheric mass density...
Loading historical data...
Loading historical data...
Loading historical data...
Loading historical data...
Loading historical data...
Loading historical data...
Loading historical data...

Documentation

Showing up to 5 results
|